Location: Apthorp Dam
(44.3084°N, 71.7462°W)
Time: 22:51:39
(UTC+00:00)

ACS3 Solar Sail - Visible Passes

Search period start: 07 October 2024 00:00
Search period end: 17 October 2024 00:00
Orbit: 962 x 1035 km, 97.4° (Epoch: 07 October)

Date Brightness Start Highest point End Pass type
(mag) Time Alt. Az. Time Alt. Az. Time Alt. Az.
07 Oct 2.1 00:04:45 31° ESE 00:07:24 48° ENE 00:13:27 10° N visible
07 Oct 3.4 01:49:54 27° WSW 01:51:29 31° W 01:57:02 10° NNW visible
07 Oct 3.4 22:52:27 10° E 22:56:01 16° ENE 22:59:32 10° NNE visible
08 Oct 1.7 00:36:56 47° SSE 00:38:58 82° ENE 00:45:21 10° N visible
08 Oct 4.1 02:22:05 16° WSW 02:23:34 17° W 02:27:36 10° NW visible
08 Oct 2.8 23:23:57 17° ESE 23:27:13 26° ENE 23:32:16 10° N visible
09 Oct 2.3 01:09:06 47° SSW 01:10:41 59° W 01:16:58 10° NNW visible
09 Oct 2.2 23:56:06 31° ESE 23:58:33 43° ENE 00:04:28 10° N visible
10 Oct 3.2 01:41:15 31° WSW 01:42:32 34° W 01:48:14 10° NNW visible
10 Oct 3.5 22:44:09 10° E 22:47:12 14° NE 22:50:13 10° NNE visible
11 Oct 1.7 00:28:14 49° SE 00:30:03 74° ENE 00:36:22 10° N visible
11 Oct 3.9 02:13:24 18° WSW 02:14:32 19° W 02:18:57 10° NW visible
11 Oct 2.9 23:15:13 16° E 23:18:19 24° ENE 23:23:07 10° NNE visible
12 Oct 2.1 01:00:22 53° SSW 01:01:41 66° W 01:07:59 10° NNW visible
12 Oct 2.3 23:47:19 30° ESE 23:49:35 39° ENE 23:55:21 10° N visible
13 Oct 3.0 01:32:28 36° WSW 01:33:28 38° W 01:39:18 10° NNW visible
13 Oct 3.5 22:35:50 10° ENE 22:38:14 12° NE 22:40:39 10° NNE visible
14 Oct 1.8 00:19:25 50° SE 00:21:00 66° ENE 00:27:14 10° N visible
14 Oct 3.8 02:04:34 21° W 02:05:23 22° W 02:10:07 10° NW visible
14 Oct 3.1 23:06:21 15° E 23:09:17 21° ENE 23:13:47 10° NNE visible
15 Oct 1.9 00:51:30 61° SSW 00:52:34 74° W 00:58:52 10° NNW visible
15 Oct 4.4 02:36:39 11° W 02:37:29 11° W 02:39:22 10° WNW visible
15 Oct 2.4 23:38:25 28° ESE 23:40:29 35° ENE 23:46:04 10° N visible
16 Oct 2.8 01:23:33 41° WSW 01:24:16 42° W 01:30:12 10° NNW visible
16 Oct 3.6 22:27:42 10° ENE 22:29:11 11° NE 22:30:39 10° NE visible
